This is the latest recevied weather packets stored in our database for station/object N6GPM. If no packets are shown the sender has not sent any weather packets the latest 10 day(s).
| Time | Temp. | Humidity | Pressure | Rain* | Wind** | Luminosity | Snow |
|---|---|---|---|---|---|---|---|
| 1787681157 | 35° C | 26% | 1019.7 hPa | 0 mm | - | 899 W/m² | - |
| 1787680852 | 35° C | 26% | 1019.7 hPa | 0 mm | - | 885 W/m² | - |
| 1787680547 | 35° C | 25% | 1019.8 hPa | 0 mm | - | 874 W/m² | - |
| 1787680246 | 35° C | 25% | 1019.9 hPa | 0 mm | - | 863 W/m² | - |
| 1787679945 | 35.56° C | 26% | 1019.8 hPa | 0 mm | - | 850 W/m² | - |
| 1787679639 | 35° C | 27% | 1020 hPa | 0 mm | - | 833 W/m² | - |
| 1787679335 | 35° C | 26% | 1019.8 hPa | 0 mm | - | 820 W/m² | - |
| 1787679031 | 35° C | 27% | 1019.8 hPa | 0 mm | - | 806 W/m² | - |
| 1787678730 | 33.89° C | 27% | 1019.6 hPa | 0 mm | - | 793 W/m² | - |
| 1787678424 | 33.33° C | 27% | 1019.9 hPa | 0 mm | - | 779 W/m² | - |
| 1787678119 | 33.89° C | 27% | 1019.9 hPa | 0 mm | - | 762 W/m² | - |
| 1787677814 | 33.33° C | 29% | 1019.9 hPa | 0 mm | - | 748 W/m² | - |
| 1787677509 | 32.78° C | 29% | 1020 hPa | 0 mm | - | 731 W/m² | - |
| 1787677208 | 33.33° C | 29% | 1019.9 hPa | 0 mm | - | 715 W/m² | - |
| 1787676907 | 32.22° C | 30% | 1019.9 hPa | 0 mm | - | 699 W/m² | - |
| 1787676603 | 31.67° C | 31% | 1019.9 hPa | 0 mm | - | 681 W/m² | - |
| 1787676299 | 31.67° C | 32% | 1019.8 hPa | 0 mm | - | 664 W/m² | - |
| 1787675995 | 31.67° C | 32% | 1020 hPa | 0 mm | - | 647 W/m² | - |
| 1787675690 | 31.11° C | 33% | 1019.9 hPa | 0 mm | - | 628 W/m² | - |
| 1787675389 | 31.11° C | 34% | 1019.8 hPa | 0 mm | - | 609 W/m² | - |
| 1787675084 | 31.11° C | 34% | 1019.9 hPa | 0 mm | - | 591 W/m² | - |
| 1787674778 | 31.11° C | 33% | 1020 hPa | 0 mm | - | 570 W/m² | - |
| 1787674474 | 31.11° C | 33% | 1019.9 hPa | 0 mm | - | 549 W/m² | - |
| 1787674169 | 31.67° C | 33% | 1020 hPa | 0 mm | - | 529 W/m² | - |
| 1787673863 | 30.56° C | 34% | 1019.8 hPa | 0 mm | - | 510 W/m² | - |
* Rain latest hour (hover to see other rain measurements)
** Current wind speed in m/s (hover to see current wind gust speed)